Other Public Products
Issued by NWS Grand Forks, ND

Home | Current Version | Previous Version | Text Only | Print | Product List | Glossary On
Versions: 1 2 3 4 5 6 7 8 9 10 11 12 13 14 15 16 17 18 19 20 21 22 23 24 25 26 27 28 29 30 31 32 33 34 35 36 37 38 39 40 41 42 43 44 45 46 47 48 49 50
000
FPUS83 KFGF 241431
OPUFGF
PRAIRIE TO PINES WEATHER ROUNDUP
NATIONAL WEATHER SERVICE EASTERN NORTH DAKOTA/GRAND FORKS ND
900 AM CDT WED MAY 24 2017

 **SATELLITE DATA USED TO AUGMENT SKY COVER AT AUTOMATED STATIONS**
 *****  WEATHER ACROSS EASTERN NORTH DAKOTA  *****

CITY           SKY/WX    TMP DP  RH WIND       PRES   REMARKS
GRAND FORKS    FAIR      56  47  71 SE5       29.82F
GRAND FORKS AF FAIR      55  44  66 SE6       29.81F
GRAND CITY NWS NOT AVBL
BUXTON           N/A     54  48  78 SE9         N/A
DEVILS LAKE    NOT AVBL
FARGO          FAIR      54  45  71 VRB3      29.82F
WAHPETON ARPT  FAIR      54  45  71 SE7       29.82F
$$

 *****  WEATHER ACROSS CENTRAL AND WESTERN NORTH DAKOTA  *****

CITY           SKY/WX    TMP DP  RH WIND       PRES   REMARKS
JAMESTOWN      FAIR      52  44  74 SE10      29.79F
BISMARCK       FAIR      51  43  74 SE3       29.76F
MINOT          FAIR      60  35  39 SE22G31   29.69F
MINOT AFB      FAIR      59  36  42 S24G31    29.67F
GARRISON         N/A     52  39  61 S16       29.71F
WILLISTON      FAIR      58  38  47 SE22G37   29.58F
DICKINSON      FAIR      53  35  50 S24G31    29.65F
HETTINGER      FAIR      52  37  56 S14       29.71F
$$

 *****  OTHER OBSERVATIONS NORTHEAST NORTH DAKOTA  *****

CITY           SKY/WX    TMP DP  RH WIND       PRES   REMARKS
WALHALLA       NOT AVBL
LANGDON        FAIR      57  41  54 S17       29.79S
CAVALIER       FAIR      59  43  55 S13       29.79F
GRAFTON        FAIR      59  45  58 S12       29.82F
CANDO          NOT AVBL
FORT TOTTEN    NOT AVBL
ROLLA          FAIR      57  36  44 S18G26    29.74F
RUGBY          NOT AVBL
 ***** THE ABOVE OBSERVATIONS ARE NON NWS ARE NOT QUALITY
        CONTROLLED AND MAY MIS-REPORT RAIN FOR SNOW...
$$

 *****  OTHER OBSERVATIONS SOUTHEAST NORTH DAKOTA *****

CITY           SKY/WX    TMP DP  RH WIND       PRES   REMARKS
COOPERSTOWN    FAIR      54  43  66 SE15      29.80F
VALLEY CITY    FAIR      54  48  82 E13       29.81F
OAKES          NOT AVBL
GWINNER        CLOUDY    52  46  82 MISG      29.81F
SHEYENNE NWR     N/A     54  49  82 SE2       29.95S
BUFFALO          N/A     53  42  65 E8          N/A
WYNDMERE         N/A     52  46  82 E2          N/A
 ***** THE ABOVE OBSERVATIONS ARE NON NWS ARE NOT QUALITY
       CONTROLLED AND MAY MIS-REPORT RAIN FOR SNOW...
$$

  *****  WEATHER ACROSS NORTHERN MINNESOTA  *****

CITY           SKY/WX    TMP DP  RH WIND       PRES   REMARKS
FLAG ISLAND    FAIR      52  45  76 SE7       29.83S
WARROAD        FAIR      57  48  72 E5        29.84F
ROSEAU         FAIR      57  46  67 SE6       29.83F
HALLOCK        FAIR      59  45  58 S9        29.81F
THF RVR FALLS  FAIR      54  44  69 SE8       29.84F
HALSTAD          N/A     55  46  73 E9          N/A
FOSSTON        FAIR      54  50  87 SE3       29.84S
BAUDETTE       FAIR      55  47  74 CALM      29.85F
WASKISH        FAIR      55  43  62 E5        29.85F
CROOKSTON      FAIR      55  45  67 SE9       29.83F
$$
  *****  WEATHER ACROSS CENTRAL AND WEST MINNESOTA  *****

CITY           SKY/WX    TMP DP  RH WIND       PRES   REMARKS
BEMIDJI        FAIR      53  40  62 E9        29.84F
PARK RAPIDS    FAIR      54  40  59 SE6       29.83S
WADENA         FAIR      54  45  71 E3        29.82F
DETROIT LAKES  FAIR      54  43  66 SE3       29.83F
MOORHEAD       FAIR      54  45  71 SE3       29.83F
FERGUS FALLS   FAIR      55  45  67 SE6       29.81F
ELBOW LAKE     CLOUDY    52  47  83 NE3       29.83S
MORRIS MN      CLOUDY    52  48  87 CALM      29.81F
STAPLES        FAIR      52  41  66 CALM      29.82F
WHEATON        CLOUDY    50  46  87 CALM      29.85R
$$
  *****  WEATHER ELSEWHERE ACROSS MINNESOTA  *****

CITY           SKY/WX    TMP DP  RH WIND       PRES   REMARKS
DULUTH         CLOUDY    52  44  74 E14       29.83R
INTRNTL FALLS  FAIR      54  39  57 VRB5      29.86S
ELY            FAIR      54  41  62 NE7       29.85S
CLOQUET        CLOUDY    52  41  66 E8G16     29.83S
BRAINERD       FAIR      53  46  77 NE9       29.82F
HIBBING        FAIR      52  41  66 E10       29.84S
ALEXANDRIA     CLOUDY    51  45  79 E12       29.82F
SAINT CLOUD    CLOUDY    51  45  79 NE7       29.80F
MINNEAPOLIS    CLOUDY    50  43  77 N9        29.79S
$$

  *****  WEATHER ACROSS SOUTH DAKOTA  *****

CITY           SKY/WX    TMP DP  RH WIND       PRES   REMARKS
SIOUX FALLS    CLOUDY    50  47  89 NE10      29.81F
BROOKINGS      CLOUDY    49  46  90 E6        29.81F
WATERTOWN      PTSUNNY   52  46  80 E3        29.80F
HURON          FAIR      50  45  83 CALM      29.82F
SISSETON         N/A     50  46  86 N3        29.82S
ABERDEEN       FAIR      50  43  77 SE6       29.81F
MITCHELL       FAIR      50  45  83 VRB3      29.83F
PIERRE         FAIR      47  39  74 CALM      29.79F
MOBRIDGE       FAIR      51  42  71 S6        29.76F
RAPID CITY     FAIR      51  39  63 S16       29.73F
$$

  *****  SOME WEATHER IN NEARBY STATES *****

CITY           SKY/WX    TMP DP  RH WIND       PRES   REMARKS
GLASGOW MT     FAIR      60  38  43 SE21      29.37F
GREAT FALLS MT FAIR      65  30  27 W39G47    29.39F
CHEYENNE WY    FAIR      58  38  47 SW10      29.82F
SCOTTSBLUFF NE FAIR      48  39  71 E13       29.77F
OMAHA NE       PTSUNNY   54  47  77 N15       29.77S
DES MOINES IA  CLOUDY    55  49  80 N13       29.69R
DAVENPORT IA   PTSUNNY   57  51  80 N10       29.62F
CHICAGO IL     CLOUDY    57  52  83 N14       29.58S
EAU CLAIRE WI  FAIR      53  44  71 NE10      29.74S
LA CROSSE WI   CLOUDY    54  49  83 N8        29.71S
$$

  *****  SOME NATIONAL WEATHER *****

CITY           SKY/WX    TMP DP  RH WIND       PRES   REMARKS
LA GUARDIA NY  CLOUDY    60  51  72 NE12      29.75S
RALEIGH NC     DRIZZLE   68  65  90 VRB5      29.69R FOG
ATLANTA GA     CLOUDY    68  64  87 S15       29.59S
NEW ORLEANS LA PTSUNNY   68  57  68 NW16      29.70R
OKLAHOMA CITY  FAIR      57  43  59 N15       29.85S
ALBUQUERQUE NM FAIR      54  33  45 CALM      30.07S
SALT LAKE CITY FAIR      67  42  40 SE14      29.85S
LOS ANGELES CA CLOUDY    58  57  97 W8        29.89R FOG
BOISE ID       FAIR      63  40  42 NW17      29.80R
SEATTLE WA     PTSUNNY   48  40  73 SE6       30.07R
$$

*** WEATHER ACROSS MANITOBA...SASKATCHEWAN AND ONTARIO ***
                ***ONTARIO***

CITY           SKY/WX    TMP DP  RH WIND       PRES   REMARKS
GERALDTON      MOSUNNY   50  32  50 NE3       29.89S
THUNDER BAY    MOSUNNY   55  39  54 E10       29.86S
SIOUX LOOKOUT  MOSUNNY   55  39  54 S6        29.87S
TORONTO        PTSUNNY   66  50  55 E9        29.69S
BIG TROUT LK   SUNNY     50  32  50 SE5       29.86F
PICKLE LAKE    SUNNY     55  34  44 S6        29.88S
DRYDEN         SUNNY     55  39  54 SE6       29.86S
KENORA         MOSUNNY   57  39  51 W8        29.84F
$$
                *** MANITOBA***

CITY           SKY/WX    TMP DP  RH WIND       PRES   REMARKS
BRANDON        PTSUNNY   61  37  41 S21G26    29.69F
DAUPHIN        SUNNY     63  36  36 S22G33    29.63F
ISLAND LAKE    MOSUNNY   63 N/A N/A NE6       29.73R
PILOT MOUND      N/A     57  39  51 S20         N/A
THE PAS        MOSUNNY   64  39  39 S16       29.47F
THOMPSON       PTSUNNY   61  39  44 S12G20    29.52S
WINNIPEG       MOSUNNY   59  43  55 SW12G18   29.79F
LYNN LAKE      CLOUDY    55  45  67 CALM      29.40F
CHURCHILL      CLOUDY    48  41  76 S16G24    29.47F
GILLAM         CLOUDY    59  37  44 S13G18    29.59F
$$
                ***SASKATCHEWAN***

CITY           SKY/WX    TMP DP  RH WIND       PRES   REMARKS
ESTEVAN        PTSUNNY   55  39  54 S26G38    29.58F
KINDERSLEY     LGT RAIN  63  43  48 SW14      29.12R
LLOYDMINSTER   PTSUNNY   63  45  51 SW20G39   28.99F
PRINCE ALBERT  LGT RAIN  57  43  58 S14G22    29.23F
REGINA         PTSUNNY   59  34  38 SE33G41   29.41F
YORKTON          N/A     61  36  39 S22G30    29.53F


USA.gov is the U.S. government's official web portal to all federal, state and local government web resources and services.